Terminal Aerodrome Forecast
Issued by NWS

Current Version | Previous Version | Text Only | Print | Product List | Glossary Off
Versions: 1 2 3 4 5 6 7 8 9 10 11 12 13 14 15 16 17 18 19 20 21 22 23

000
FTUS41 KPBZ 310200 AAA
TAFHLG
TAF AMD
KHLG 310240Z 3103/3124 31010KT P6SM -SHSN BKN035
     FM310800 28005KT P6SM SCT080
     FM311600 24006KT P6SM SCT035=

USA.gov is the U.S. government's official web portal to all federal, state and local government web resources and services.